Vorticity
nan nan nan nan nan nan nan nan nan nan nan nan nan nan nan nan nan nan nan nan nan nan nan nan nan nan nan nan nan nan nan nan nan nan nan nan nan nan nan nan nan nan nan nan nan nan nan nan nan nan nan nan nan nan nan nan nan nan nan nan nan nan nan nan nan nan nan nan nan
nan 8 9 8 7 6 8 9 10 9 8 8 9 9 9 8 8 8 8 8 8 8 8 8 9 9 8 8 8 9 9 9 9 9 10 10 9 8 7 7 7 7 7 9 9 9 9 9 8 7 7 8 9 9 8 8 9 9 10 10 11 10 8 9 9 10 11 13 nan
nan 8 8 8 8 8 8 8 9 9 8 7 8 9 9 8 9 8 8 8 8 8 7 8 8 9 9 9 9 9 9 9 9 9 9 9 8 7 7 7 7 8 8 9 9 8 7 8 8 7 7 8 7 7 8 10 10 10 12 13 11 8 8 9 10 11 12 11 nan
nan 8 8 8 8 7 7 7 8 8 8 8 9 9 8 8 8 8 8 9 8 8 7 7 7 8 8 9 9 9 9 8 7 7 8 8 8 8 8 7 8 9 9 9 8 7 8 8 9 9 9 8 8 9 9 9 9 10 11 12 9 8 8 9 10 11 10 8 nan
nan 8 9 10 9 7 7 9 8 8 8 8 8 8 8 8 8 7 7 8 8 7 7 6 5 6 7 9 9 9 9 8 8 9 9 8 9 9 9 8 8 9 9 9 8 8 9 9 9 9 9 9 10 9 7 7 8 8 7 7 7 8 8 9 10 10 8 8 nan
nan 8 8 10 11 8 8 10 10 8 8 8 7 6 5 6 7 7 6 6 8 8 8 6 6 7 8 9 10 9 9 9 10 10 9 9 9 9 9 9 9 8 8 8 9 10 11 11 9 8 7 7 7 7 7 8 7 6 4 4 6 8 9 9 10 9 8 5 nan
nan 9 8 10 10 9 8 9 9 8 8 8 7 6 4 4 5 5 5 6 8 9 10 11 11 11 10 9 9 9 8 9 9 9 9 9 8 8 9 9 9 9 8 8 10 11 11 10 8 7 6 7 8 7 8 7 5 4 3 4 7 8 9 10 10 8 7 5 nan
nan 11 10 10 10 9 8 7 7 7 6 6 7 7 7 6 6 6 6 7 8 9 10 12 12 11 10 8 8 8 8 8 8 9 9 9 9 9 9 9 9 9 10 11 10 10 9 9 8 8 8 9 8 7 7 5 4 3 4 6 8 8 7 9 8 6 6 8 nan
nan 10 10 10 10 9 8 8 7 6 6 7 8 8 8 6 7 8 9 9 9 9 9 10 10 10 9 8 8 8 9 9 9 9 9 9 9 8 8 8 9 10 11 12 10 9 8 8 7 7 7 6 5 5 5 5 5 5 6 10 8 5 3 4 4 4 6 9 nan
nan 8 9 9 8 9 8 8 9 8 8 8 9 9 8 7 7 9 9 9 9 9 9 9 9 9 9 8 9 9 9 9 9 9 9 8 7 7 7 8 9 10 11 10 10 9 9 7 6 5 5 5 5 5 5 6 6 6 7 7 4 3 3 3 4 6 9 10 nan
nan 7 8 8 9 9 8 8 9 9 9 9 9 9 10 10 10 9 8 9 9 9 9 9 8 8 8 9 9 9 8 8 8 8 8 7 6 7 8 9 10 11 10 7 7 8 8 7 6 5 4 4 7 8 8 7 7 6 5 2 2 4 6 6 7 10 12 12 nan
nan 7 8 9 9 9 9 7 8 10 10 9 9 9 10 11 10 9 8 9 9 9 9 9 8 8 8 8 8 8 9 9 8 7 7 7 7 8 9 10 10 10 8 7 7 7 7 6 5 5 5 5 7 8 8 7 6 6 5 3 5 6 7 7 8 10 11 11 nan
nan 7 8 9 9 9 8 7 8 9 10 9 8 9 9 10 10 10 10 9 8 8 8 8 8 8 7 7 8 8 8 8 8 7 7 7 8 9 9 10 10 9 9 10 8 7 6 6 5 5 6 7 6 5 5 7 6 7 6 7 7 7 7 8 8 9 10 10 nan
nan 7 8 9 9 8 8 7 8 9 10 10 9 9 9 10 10 10 10 9 7 7 7 8 8 8 8 7 7 7 7 7 7 7 7 7 8 9 10 10 9 9 9 9 9 7 6 5 6 7 8 8 6 6 6 8 8 8 9 9 8 8 8 8 9 11 13 13 nan
nan 8 8 9 9 8 8 8 8 10 11 11 10 10 10 10 11 9 8 8 8 7 7 7 7 8 9 9 8 8 8 8 8 8 8 9 9 9 9 8 9 9 8 7 8 8 8 8 9 10 10 10 8 8 7 7 8 8 9 9 9 9 9 8 10 14 17 15 nan
nan 7 8 9 8 7 8 7 8 11 11 10 10 10 10 9 10 9 8 6 8 7 7 6 7 8 9 9 9 9 10 9 9 9 9 9 9 8 8 8 8 8 7 7 8 8 9 10 11 11 10 9 9 8 7 7 8 8 8 8 9 9 9 9 12 17 19 15 nan
nan 7 8 9 8 7 6 6 7 9 9 9 8 8 8 8 8 9 9 7 7 7 7 6 7 7 8 9 10 11 10 9 9 9 9 8 8 8 8 8 8 8 8 9 8 8 9 10 10 10 10 9 8 8 8 9 9 9 9 9 9 9 10 11 16 21 20 13 nan
nan 7 8 9 9 8 6 5 6 8 9 9 8 8 8 7 7 8 9 10 8 7 7 7 7 7 7 8 8 9 8 8 8 8 8 8 8 8 8 8 8 9 9 9 9 9 9 9 9 8 8 8 8 8 9 9 9 9 10 10 10 10 10 15 21 22 18 10 nan
nan 8 9 9 9 9 8 7 6 7 9 10 9 8 8 7 7 6 7 8 8 8 8 8 7 8 8 8 7 6 7 9 9 8 8 9 9 9 8 8 9 9 10 10 10 10 10 10 9 8 7 7 6 6 7 8 8 9 10 11 11 10 12 19 25 21 15 9 nan
nan 8 9 10 10 10 10 9 8 8 8 9 9 7 7 8 7 7 6 7 8 9 9 8 7 7 7 8 7 7 7 9 10 10 10 9 9 9 9 9 10 10 11 11 11 11 11 10 9 8 7 6 6 7 8 9 9 9 10 11 10 11 14 24 26 20 12 8 nan
nan 9 9 10 10 10 9 9 9 9 9 9 9 8 7 7 7 7 8 9 10 10 9 8 8 7 7 7 7 8 7 8 10 10 10 10 10 10 10 10 11 11 11 11 11 11 10 9 9 8 8 8 8 9 9 9 10 10 9 8 7 10 18 27 24 17 10 8 nan
nan 10 11 11 10 9 8 8 8 9 9 9 9 9 8 7 8 8 8 9 9 10 9 10 9 9 8 7 8 7 7 7 9 9 10 10 10 10 10 11 11 10 10 11 12 12 11 11 10 10 10 10 10 10 9 8 9 11 11 8 9 16 24 25 19 13 9 8 nan
nan 10 11 12 12 10 8 7 7 8 8 8 8 8 8 7 8 9 8 7 8 8 9 10 11 11 9 8 8 7 7 6 7 9 10 9 10 10 10 11 11 11 11 13 12 10 9 11 13 14 14 14 14 14 15 15 15 16 16 15 20 24 26 20 13 9 7 6 nan
nan 8 9 10 12 11 9 8 7 7 7 7 8 8 8 7 8 8 9 8 8 9 9 8 10 10 10 9 9 9 9 8 8 9 10 9 10 10 11 11 12 13 13 10 1 -3 -3 2 8 12 15 15 16 18 21 23 22 20 20 22 25 25 21 15 11 8 6 5 nan
nan 6 7 8 9 9 9 8 7 7 6 8 8 8 8 8 9 9 9 10 10 10 10 8 7 8 9 10 10 11 11 11 11 10 9 9 10 10 10 10 12 13 12 1 -10 -11 -8 -3 1 6 10 13 14 17 21 22 20 19 21 24 23 20 16 13 10 8 7 6 nan
nan 8 8 7 7 8 8 8 8 8 7 8 8 8 8 9 9 9 10 10 11 12 12 11 8 7 7 10 10 10 11 12 12 11 9 9 9 9 9 9 11 11 6 -7 -10 -5 -0 2 3 6 10 13 14 17 19 15 13 16 21 23 19 16 14 13 10 9 7 8 nan
nan 9 8 8 8 7 7 7 7 7 7 8 8 8 8 9 9 9 10 12 12 13 13 12 10 10 11 12 11 10 9 9 10 11 10 9 8 8 8 9 10 6 -3 -13 -8 -0 5 7 8 9 13 14 16 19 17 11 9 13 18 20 19 19 18 15 11 8 7 7 nan
nan 8 9 8 7 7 7 7 7 8 7 7 8 8 9 9 10 10 11 12 12 11 10 11 11 12 13 12 11 10 9 9 9 10 12 10 10 9 8 8 6 -1 -11 -13 -4 4 8 9 9 9 12 16 23 22 19 12 10 12 13 16 20 23 22 16 11 9 8 8 nan
nan 8 8 7 7 7 8 8 9 8 8 8 8 8 9 9 10 10 9 9 9 8 8 9 11 10 9 8 10 11 11 11 10 10 10 9 10 9 7 6 3 -3 -8 -6 3 7 9 9 8 8 8 19 31 28 21 12 10 10 12 14 19 23 21 14 9 8 8 9 nan
nan 8 8 8 7 7 8 9 9 8 8 8 9 9 9 9 9 9 9 9 9 8 8 9 8 7 7 7 9 10 11 10 10 10 8 8 7 6 6 6 5 1 -4 -1 5 8 9 8 7 7 6 21 38 36 22 10 8 9 11 13 17 19 16 11 8 7 6 6 nan
nan 8 8 8 8 7 7 8 8 8 8 7 8 8 8 8 10 11 12 12 11 10 9 8 7 7 8 9 10 10 10 9 9 8 8 7 5 7 8 8 6 2 -3 -1 4 7 8 8 7 6 8 30 47 37 20 9 9 9 9 11 14 15 13 10 9 8 6 5 nan
nan 8 8 8 7 6 6 7 7 7 8 7 7 8 8 8 10 11 11 11 11 11 10 9 9 9 10 10 10 10 10 9 7 6 6 6 8 8 7 8 9 4 -3 -2 4 6 7 7 6 8 15 41 48 32 16 9 9 10 10 11 13 13 11 9 8 8 8 7 nan
nan 8 8 7 6 6 6 7 7 7 8 8 8 8 9 10 9 9 9 9 10 11 11 10 10 11 11 11 10 10 9 8 8 7 7 8 9 8 8 11 10 3 -4 -3 3 6 7 7 6 12 26 48 44 26 14 9 9 9 10 11 13 14 12 8 6 7 7 7 nan
nan 7 7 7 6 6 6 7 7 7 7 8 8 8 8 10 8 8 8 9 9 10 11 11 12 12 11 10 9 9 8 7 8 9 10 10 10 9 8 9 5 -4 -7 -2 4 7 8 7 8 19 37 48 36 20 11 9 9 8 8 10 12 13 13 10 8 8 7 8 nan
nan 7 6 6 6 6 7 7 7 7 7 7 8 8 9 9 10 10 10 9 8 9 10 11 12 11 11 10 9 8 8 8 8 9 9 9 9 8 7 7 0 -6 -6 0 6 7 8 6 12 26 45 44 27 14 9 8 8 7 8 11 13 14 13 12 11 10 10 10 nan
nan 7 6 6 7 7 7 7 7 7 7 7 8 8 9 9 12 12 11 10 10 9 10 10 10 10 9 10 9 8 8 9 9 9 9 9 9 8 8 7 3 -1 -0 3 6 7 8 7 14 30 46 38 18 10 8 8 8 8 10 13 15 16 18 17 14 12 11 12 nan
nan 8 7 7 7 7 8 8 8 7 7 8 8 9 10 10 11 11 10 10 10 10 9 9 9 8 8 9 9 9 9 9 9 9 8 9 9 8 8 8 7 5 3 3 5 6 7 7 15 30 45 33 12 8 8 9 9 9 11 13 15 17 21 22 18 15 13 11 nan
nan 9 8 7 8 8 8 8 8 8 7 8 8 9 10 11 10 10 10 9 10 9 9 9 9 8 8 7 8 9 10 9 8 8 8 9 9 8 7 9 10 7 3 -0 2 6 7 8 14 28 43 33 11 8 8 9 10 10 11 11 11 13 19 22 19 16 13 5 nan
nan 9 8 8 8 8 8 8 8 7 7 8 8 8 8 9 9 9 10 10 10 9 9 9 9 8 7 6 6 8 10 11 10 9 9 9 7 4 5 10 9 6 -0 -2 2 6 7 8 12 24 39 33 14 10 8 9 10 11 10 9 8 9 14 17 16 14 12 3 nan
nan 10 9 8 8 8 8 8 7 7 7 8 8 8 7 8 8 8 9 11 10 10 9 9 9 8 7 7 8 8 9 10 10 10 10 8 5 4 8 13 10 6 2 1 2 5 7 8 12 21 37 33 16 11 9 9 10 11 10 8 8 10 11 13 13 13 12 8 nan
nan nan nan nan nan nan nan nan nan nan nan nan nan nan nan nan nan nan nan nan nan nan nan nan nan nan nan nan nan nan nan nan nan nan nan nan nan nan nan nan nan nan nan nan nan nan nan nan nan nan nan nan nan nan nan nan nan nan nan nan nan nan nan nan nan nan nan nan nan
CAPE
nan nan nan nan nan nan nan nan nan nan nan nan nan nan nan nan nan nan nan nan nan nan nan nan nan nan nan nan nan nan nan nan nan nan nan nan nan nan nan nan nan nan nan nan nan nan nan nan nan nan nan nan nan nan nan nan nan nan nan nan nan nan nan nan nan nan nan nan nan
nan nan nan nan nan nan nan nan nan nan nan nan nan nan nan nan nan nan nan nan nan nan nan nan nan nan nan nan nan nan nan nan nan nan nan nan nan nan nan nan nan nan nan nan nan nan nan nan nan nan nan nan nan nan nan nan nan nan nan nan nan nan nan nan nan nan nan nan nan
nan nan nan nan nan nan nan nan nan nan nan nan nan nan nan nan nan nan nan nan nan nan nan nan nan nan nan nan nan nan nan nan nan nan nan nan nan nan nan nan nan nan nan nan nan nan nan nan nan nan nan nan nan nan nan nan nan nan nan nan nan nan nan nan nan nan nan nan nan
nan nan nan nan nan nan nan nan nan nan nan nan nan nan nan nan nan nan nan nan nan nan nan nan nan nan nan nan nan nan nan nan nan nan nan nan nan nan nan nan nan nan nan nan nan nan nan nan nan nan nan nan nan nan nan nan nan nan nan nan nan nan nan nan nan nan nan nan nan
nan nan nan nan nan nan nan nan nan nan nan nan nan nan nan nan nan nan nan nan nan nan nan nan nan nan nan nan nan nan nan nan nan nan nan nan nan nan nan nan nan nan nan nan nan nan nan nan nan nan nan nan nan nan nan nan nan nan nan nan nan nan nan nan nan nan nan nan nan
nan nan nan nan nan nan nan nan nan nan nan nan nan nan nan nan nan nan nan nan nan nan nan nan nan nan nan nan nan nan nan nan nan nan nan nan nan nan nan nan nan nan nan nan nan nan nan nan nan nan nan nan nan nan nan nan nan nan nan nan nan nan nan nan nan nan nan nan nan
nan nan nan nan nan nan nan nan nan nan nan nan nan nan nan nan nan nan nan nan nan nan nan nan nan nan nan nan nan nan nan nan nan nan nan nan nan nan nan nan nan nan nan nan nan nan nan nan nan nan nan nan nan nan nan nan nan nan nan nan nan nan nan nan nan nan nan nan nan
nan nan nan nan nan nan nan nan nan nan nan nan nan nan nan nan nan nan nan nan nan nan nan nan nan nan nan nan nan nan nan nan nan nan nan nan nan nan nan nan nan nan nan nan nan nan nan nan nan nan nan nan nan nan nan nan nan nan nan nan nan nan nan nan nan nan nan nan nan
nan nan nan nan nan nan nan nan nan nan nan nan nan nan nan nan nan nan nan nan nan nan nan nan nan nan nan nan nan nan nan nan nan nan nan nan nan nan nan nan nan nan nan nan nan nan nan nan nan nan nan nan nan nan nan nan nan nan nan nan nan nan nan nan nan nan nan nan nan
nan nan nan nan nan nan nan nan nan nan nan nan nan nan nan nan nan nan nan nan nan nan nan nan nan nan nan nan nan nan nan nan nan nan nan nan nan nan nan nan nan nan nan nan nan nan nan nan nan nan nan nan nan nan nan nan nan nan nan nan nan nan nan nan nan nan nan nan nan
nan nan nan nan nan nan nan nan nan nan nan nan nan nan nan nan nan nan nan nan nan nan nan nan nan nan nan nan nan nan nan nan nan nan nan nan nan nan nan nan nan nan nan nan nan nan nan nan nan nan nan nan nan nan nan nan nan nan nan nan nan nan nan nan nan nan nan nan nan
nan nan nan nan nan nan nan nan nan nan nan nan nan nan nan nan nan nan nan nan nan nan nan nan nan nan nan nan nan nan nan nan nan nan nan nan nan nan nan nan nan nan nan nan nan nan nan nan nan nan nan nan nan nan nan nan nan nan nan nan nan nan nan nan nan nan nan nan nan
nan nan nan nan nan nan nan nan nan nan nan nan nan nan nan nan nan nan nan nan nan nan nan nan nan nan nan nan nan nan nan nan nan nan nan nan nan nan nan nan nan nan nan nan nan nan nan nan nan nan nan nan nan nan nan nan nan nan nan nan nan nan nan nan nan nan nan nan nan
nan nan nan nan nan nan nan nan nan nan nan nan nan nan nan nan nan nan nan nan nan nan nan nan nan nan nan nan nan nan nan nan nan nan nan nan nan nan nan nan nan nan nan nan nan nan nan nan nan nan nan nan nan nan nan nan nan nan nan nan nan nan nan nan nan nan nan nan nan
nan nan nan nan nan nan nan nan nan nan nan nan nan nan nan nan nan nan nan nan nan nan nan nan nan nan nan nan nan nan nan nan nan nan nan nan nan nan nan nan nan nan nan nan nan nan nan nan nan nan nan nan nan nan nan nan nan nan nan nan nan nan nan nan nan nan nan nan nan
nan nan nan nan nan nan nan nan nan nan nan nan nan nan nan nan nan nan nan nan nan nan nan nan nan nan nan nan nan nan nan nan nan nan nan nan nan nan nan nan nan nan nan nan nan nan nan nan nan nan nan nan nan nan nan nan nan nan nan nan nan nan nan nan nan nan nan nan nan
nan nan nan nan nan nan nan nan nan nan nan nan nan nan nan nan nan nan nan nan nan nan nan nan nan nan nan nan nan nan nan nan nan nan nan nan nan nan nan nan nan nan nan nan nan nan nan nan nan nan nan nan nan nan nan nan nan nan nan nan nan nan nan nan nan nan nan nan nan
nan nan nan nan nan nan nan nan nan nan nan nan nan nan nan nan nan nan nan nan nan nan nan nan nan nan nan nan nan nan nan nan nan nan nan nan nan nan nan nan nan nan nan nan nan nan nan nan nan nan nan nan nan nan nan nan nan nan nan nan nan nan nan nan nan nan nan nan nan
nan nan nan nan nan nan nan nan nan nan nan nan nan nan nan nan nan nan nan nan nan nan nan nan nan nan nan nan nan nan nan nan nan nan nan nan nan nan nan nan nan nan nan nan nan nan nan nan nan nan nan nan nan nan nan nan nan nan nan nan nan nan nan nan nan nan nan nan nan
nan nan nan nan nan nan nan nan nan nan nan nan nan nan nan nan nan nan nan nan nan nan nan nan nan nan nan nan nan nan nan nan nan nan nan nan nan nan nan nan nan nan nan nan nan nan nan nan nan nan nan nan nan nan nan nan nan nan nan nan nan nan nan nan nan nan nan nan nan
nan nan nan nan nan nan nan nan nan nan nan nan nan nan nan nan nan nan nan nan nan nan nan nan nan nan nan nan nan nan nan nan nan nan nan nan nan nan nan nan nan nan nan nan nan nan nan nan nan nan nan nan nan nan nan nan nan nan nan nan nan nan nan nan nan nan nan nan nan
nan nan nan nan nan nan nan nan nan nan nan nan nan nan nan nan nan nan nan nan nan nan nan nan nan nan nan nan nan nan nan nan nan nan nan nan nan nan nan nan nan nan nan nan nan nan nan nan nan nan nan nan nan nan nan nan nan nan nan nan nan nan nan nan nan nan nan nan nan
nan nan nan nan nan nan nan nan nan nan nan nan nan nan nan nan nan nan nan nan nan nan nan nan nan nan nan nan nan nan nan nan nan nan nan nan nan nan nan nan nan nan nan nan nan nan nan nan nan nan nan nan nan nan nan nan nan nan nan nan nan nan nan nan nan nan nan nan nan
nan nan nan nan nan nan nan nan nan nan nan nan nan nan nan nan nan nan nan nan nan nan nan nan nan nan nan nan nan nan nan nan nan nan nan nan nan nan nan nan nan nan nan nan nan nan nan nan nan nan nan nan nan nan nan nan nan nan nan nan nan nan nan nan nan nan nan nan nan
nan nan nan nan nan nan nan nan nan nan nan nan nan nan nan nan nan nan nan nan nan nan nan nan nan nan nan nan nan nan nan nan nan nan nan nan nan nan nan nan nan nan nan nan 7 7 46 67 45 45 17 10 0 nan nan nan nan nan nan nan nan nan nan nan nan nan nan nan nan
nan nan nan nan nan nan nan nan nan nan nan nan nan nan nan nan nan nan nan nan nan nan nan nan nan nan nan nan nan nan nan nan nan nan nan nan nan nan nan nan nan nan nan nan 16 16 51 99 129 129 65 9 1 nan nan nan nan nan nan nan nan nan nan nan nan nan nan nan nan
nan nan nan nan nan nan nan nan nan nan nan nan nan nan nan nan nan nan nan nan nan nan nan nan nan nan nan nan nan nan nan nan nan nan nan nan nan nan nan nan nan nan nan nan 24 24 67 102 137 137 122 28 1 nan nan nan nan nan nan nan nan nan nan nan nan nan nan nan nan
nan nan nan nan nan nan nan nan nan nan nan nan nan nan nan nan nan nan nan nan nan nan nan nan nan nan nan nan nan nan nan nan nan nan nan nan nan nan nan nan nan nan nan 7 34 34 67 99 129 129 165 99 nan nan nan nan nan nan nan nan nan nan nan nan nan nan nan nan nan
nan nan nan nan nan nan nan nan nan nan nan nan nan nan nan nan nan nan nan nan nan nan nan nan nan nan nan nan nan nan nan nan nan nan nan nan nan nan nan nan nan nan nan 8 28 28 57 92 133 133 184 195 3 nan nan nan nan nan nan nan nan nan nan nan nan nan nan nan nan
nan nan nan nan nan nan nan nan nan nan nan nan nan nan nan nan nan nan nan nan nan nan nan nan nan nan nan nan nan nan nan nan nan nan nan nan nan nan nan nan nan nan nan 6 23 23 55 89 126 126 189 245 35 nan nan nan nan nan nan nan nan nan nan nan nan nan nan nan nan
nan nan nan nan nan nan nan nan nan nan nan nan nan nan nan nan nan nan nan nan nan nan nan nan nan nan nan nan nan nan nan nan nan nan nan nan nan nan nan nan nan nan nan 4 23 23 56 93 128 128 189 273 66 nan nan nan nan nan nan nan nan nan nan nan nan nan nan nan nan
nan nan nan nan nan nan nan nan nan nan nan nan nan nan nan nan nan nan nan nan nan nan nan nan nan nan nan nan nan nan nan nan nan nan nan nan nan nan nan nan nan nan nan 5 26 26 57 93 125 125 201 257 59 nan nan nan nan nan nan nan nan nan nan nan nan nan nan nan nan
nan nan nan nan nan nan nan nan nan nan nan nan nan nan nan nan nan nan nan nan nan nan nan nan nan nan nan nan nan nan nan nan nan nan nan nan nan nan nan nan nan nan nan 8 30 30 55 84 117 117 218 243 12 nan nan nan nan nan nan nan nan nan nan nan nan nan nan nan nan
nan nan nan nan nan nan nan nan nan nan nan nan nan nan nan nan nan nan nan nan nan nan nan nan nan nan nan nan nan nan nan nan nan nan nan nan nan nan nan nan nan nan nan 11 31 31 54 72 118 118 210 166 nan nan nan nan nan nan nan nan nan nan nan nan nan nan nan nan nan
nan nan nan nan nan nan nan nan nan nan nan nan nan nan nan nan nan nan nan nan nan nan nan nan nan nan nan nan nan nan nan nan nan nan nan nan nan nan nan nan nan nan nan 11 31 31 50 67 123 123 213 50 nan nan nan nan nan nan nan nan nan nan nan nan nan nan nan nan nan
nan nan nan nan nan nan nan nan nan nan nan nan nan nan nan nan nan nan nan nan nan nan nan nan nan nan nan nan nan nan nan nan nan nan nan nan nan nan nan nan nan nan nan 7 23 23 44 61 122 122 209 nan nan nan nan nan nan nan nan nan nan nan nan nan nan nan nan nan nan
nan nan nan nan nan nan nan nan nan nan nan nan nan nan nan nan nan nan nan nan nan nan nan nan nan nan nan nan nan nan nan nan nan nan nan nan nan nan nan nan nan nan nan 4 20 20 37 58 110 110 170 nan nan nan nan nan nan nan nan nan nan nan nan nan nan nan nan nan nan
nan nan nan nan nan nan nan nan nan nan nan nan nan nan nan nan nan nan nan nan nan nan nan nan nan nan nan nan nan nan nan nan nan nan nan nan nan nan nan nan nan nan nan 1 16 16 31 48 98 98 128 nan nan nan nan nan nan nan nan nan nan nan nan nan nan nan nan nan nan
nan nan nan nan nan nan nan nan nan nan nan nan nan nan nan nan nan nan nan nan nan nan nan nan nan nan nan nan nan nan nan nan nan nan nan nan nan nan nan nan nan nan nan nan 10 10 24 46 94 94 176 nan nan nan nan nan nan nan nan nan nan nan nan nan nan nan nan nan 17
nan nan nan nan nan nan nan nan nan nan nan nan nan nan nan nan nan nan nan nan nan nan nan nan nan nan nan nan nan nan nan nan nan nan nan nan nan nan nan nan nan nan nan nan 5 5 18 41 101 101 183 nan nan nan nan nan nan nan nan nan nan nan nan nan nan nan nan nan 6
nan nan nan nan nan nan nan nan nan nan nan nan nan nan nan nan nan nan nan nan nan nan nan nan nan nan nan nan nan nan nan nan nan nan nan nan nan nan nan nan nan nan nan nan 3 3 14 37 102 102 184 5 nan nan nan nan nan nan nan nan nan nan nan nan nan nan nan nan nan